This demonstration page uses our WeatherBlox Daily Observations layout. Learn more.

Hourly Observations for February 9, 2017

Temp ( °F °C ) Dew Point ( °F °C ) Humidity (%) Winds ( mph kmh ) Pressure ( in mb ) Visibility ( mi km ) Precip ( " mm )
12:54 am 00:54 Clear 12 -11.1 4 -15.6 70 70 Calm 30.44 1031 10 16.0934 0 0
1:54 am 01:54 Clear 12 -11.1 4 -15.6 70 70 NW 3 6 30.44 1031 10 16.0934 0 0
2:54 am 02:54 Clear 13 -10.6 5 -15 70 70 N 5 7 30.43 1031 10 16.0934 0 0
3:54 am 03:54 Mostly Clear 13 -10.6 6 -14.4 74 74 WNW 3 6 30.44 1031 10 16.0934 0 0
4:54 am 04:54 Partly Cloudy 14 -10 6 -14.4 71 71 NNE 9 15 30.42 1030 10 16.0934 0 0
5:54 am 05:54 Clear 14 -10 6 -14.4 71 71 NE 5 7 30.43 1031 10 16.0934 0 0
6:54 am 06:54 Mostly Cloudy 15 -9.4 6 -14.4 67 67 ENE 5 7 30.45 1031 10 16.0934 0 0
7:54 am 07:54 Cloudy 15 -9.4 5 -15 64 64 Calm 30.47 1032 10 16.0934 0 0
8:54 am 08:54 Cloudy 16 -8.9 6 -14.4 65 65 SE 5 7 30.47 1032 10 16.0934 0 0
9:54 am 09:54 Cloudy 17 -8.3 5 -15 59 59 SSE 7 11 30.45 1031 10 16.0934 0 0
10:54 am 10:54 Cloudy 19 -7.2 5 -15 54 54 SSE 9 15 30.44 1031 10 16.0934 0 0
11:54 am 11:54 Partly Cloudy 24 -4.4 7 -13.9 48 48 S 10 17 30.4 1030 10 16.0934 0 0
12:54 pm 12:54 Sunny 29 -1.7 9 -12.8 43 43 SSE 10 17 30.34 1027 10 16.0934 0 0
1:54 pm 13:54 Sunny 33 0.6 11 -11.7 40 40 S 12 19 30.28 1025 10 16.0934 0 0
2:54 pm 14:54 Sunny 36 2.2 12 -11.1 37 37 S 16 26 30.22 1023 10 16.0934 0 0
3:54 pm 15:54 Sunny 36 2.2 13 -10.6 39 39 S 15 24 30.2 1023 10 16.0934 0 0
4:54 pm 16:54 Sunny 36 2.2 14 -10 40 40 S 17 28 30.17 1022 10 16.0934 0 0
5:54 pm 17:54 Sunny 33 0.6 14 -10 45 45 S 13 20 30.14 1021 10 16.0934 0 0
6:54 pm 18:54 Clear 32 0 14 -10 47 47 S 15 24 30.11 1020 10 16.0934 0 0
7:54 pm 19:54 Clear 31 -0.6 15 -9.4 52 52 SSE 12 19 30.11 1020 10 16.0934 0 0
8:54 pm 20:54 Clear 31 -0.6 16 -8.9 54 54 SSE 14 22 30.06 1018 10 16.0934 0 0
9:54 pm 21:54 Clear 31 -0.6 16 -8.9 54 54 S 15 24 30.03 1017 10 16.0934 0 0
10:54 pm 22:54 Clear 31 -0.6 17 -8.3 56 56 SSE 10 17 29.99 1016 10 16.0934 0 0
11:54 pm 23:54 Clear 32 0 18 -7.8 56 56 SSE 13 20 29.94 1014 10 16.0934 0 0

Powered by AerisWeather